DateTimeUTC,F1_A11,F1_S11,BsB_S11,BsG_S11,BsR_S11,BbsB_S11,BbsG_S11,BbsR_S11,BaB_A11,BaG_A11,BaR_A11,Tu_S11,T_S11,Uu_S11,U_S11,P_S11,T1_A11
2021-04-18T15:00:00Z,00040200,21000000,,,,,,,0000.31,-000.09,0000.24,17.7,24.8,00.6,00.4,0649.5,31.0
2021-04-18T15:01:00Z,00040200,21000000,,,,,,,-000.05,0000.06,-000.40,17.7,24.8,00.6,00.4,0649.5,31.0
2021-04-18T15:02:00Z,00040200,21000000,,,,,,,-000.46,-000.17,-000.13,17.7,24.8,00.6,00.4,0649.5,31.0
2021-04-18T15:03:00Z,00040200,61000000,,,,,,,0000.05,0000.05,-000.20,17.7,24.8,00.6,00.4,0649.5,31.0
2021-04-18T15:04:00Z,00040200,41000000,0000.53,0000.56,0000.61,0000.19,-000.05,0000.12,-000.28,-000.48,0000.13,17.8,24.7,00.5,00.3,0650.4,31.0
2021-04-18T15:05:00Z,00040200,01000000,0000.61,0000.71,0000.41,0000.74,0000.01,0000.01,-000.05,0000.41,-000.02,17.9,24.6,00.5,00.3,0650.5,31.0
2021-04-18T15:06:00Z,00040200,01000000,0000.85,0000.70,0000.48,0000.01,0000.04,-000.22,0000.19,-000.10,0000.07,17.9,24.6,00.4,00.3,0650.5,31.0
2021-04-18T15:07:00Z,00040200,01000000,0001.03,0000.41,0000.47,0000.19,0000.12,0000.06,0000.43,0000.22,0000.35,17.9,24.6,00.6,00.4,0650.5,31.1
2021-04-18T15:08:00Z,00040200,01000000,0000.82,0000.43,0000.56,0000.08,0000.01,0000.53,0000.21,0000.65,-000.00,17.9,24.6,00.6,00.4,0650.5,31.1
2021-04-18T15:09:00Z,00040200,01000000,0000.90,0000.37,0000.29,0000.65,0000.12,-000.00,-000.11,-000.30,-000.05,18.0,24.6,00.5,00.4,0650.5,31.1
2021-04-18T15:10:00Z,00040200,01000000,0001.22,0000.47,0000.34,-000.30,0000.32,0000.01,0000.47,0000.11,0000.28,18.0,24.7,00.5,00.3,0650.5,31.1
2021-04-18T15:11:00Z,00040200,01000000,0000.38,0000.87,0000.64,0000.15,-000.00,0000.08,-000.03,0000.29,0000.35,18.0,24.7,00.6,00.4,0650.5,31.1
2021-04-18T15:12:00Z,00040200,01000000,0000.72,0000.62,0000.47,0000.40,0000.31,0000.06,0000.27,0000.71,0000.14,18.1,24.7,00.6,00.4,0650.5,31.1
2021-04-18T15:13:00Z,00040200,01000000,0000.89,0000.59,0000.53,0000.29,-000.03,0000.00,0000.07,-000.17,-000.02,18.1,24.7,00.6,00.4,0650.5,31.1
2021-04-18T15:14:00Z,00040200,01000000,0001.08,0000.56,0000.56,0000.14,-000.07,-000.02,0000.49,-000.14,0000.34,18.1,24.7,00.7,00.4,0650.5,31.1
2021-04-18T15:15:00Z,00040200,01000000,0000.48,0000.50,0000.25,0000.29,-000.00,-000.16,0000.45,0000.65,-000.10,18.1,24.7,00.6,00.4,0650.5,31.1
2021-04-18T15:16:00Z,00040200,01000000,0001.37,0000.39,0000.36,-000.12,0000.03,0000.06,0000.24,0000.54,0000.61,18.1,24.8,00.6,00.4,0650.5,31.1
2021-04-18T15:17:00Z,00040200,01000000,0000.72,0000.60,0000.42,0000.32,-000.08,-000.17,0000.69,0000.36,0000.34,18.1,24.8,00.8,00.5,0650.5,31.1
2021-04-18T15:18:00Z,00040200,01000000,0000.52,0000.32,0000.37,-000.24,0000.06,-000.11,0000.30,0000.11,0000.11,18.1,24.8,00.7,00.5,0650.5,31.1
2021-04-18T15:19:00Z,00040200,01000000,0000.85,0000.54,0000.53,0000.49,-000.04,0000.06,-000.25,-000.03,0000.12,18.1,24.8,00.8,00.5,0650.5,31.1
2021-04-18T15:20:00Z,00040200,01000000,0001.05,0000.62,0000.44,0000.37,0000.38,-000.06,0000.13,-000.06,-000.11,18.1,24.8,00.6,00.4,0650.5,31.1
2021-04-18T15:21:00Z,00040200,01000000,0001.10,0000.44,0000.49,0000.11,-000.03,-000.02,-000.09,0000.30,-000.09,18.1,24.8,00.6,00.4,0650.5,31.1
2021-04-18T15:22:00Z,00040200,01000000,0000.88,0000.73,0000.55,0000.25,-000.19,0000.04,-000.01,0000.03,0000.18,18.1,24.8,00.6,00.4,0650.5,31.1
2021-04-18T15:23:00Z,00040200,01000000,0000.98,0000.51,0000.69,0000.35,-000.26,0000.06,0000.63,0000.07,0000.59,18.1,24.8,00.6,00.4,0650.5,31.1
2021-04-18T15:24:00Z,00040200,01000000,0000.96,0000.56,0000.74,0000.04,0000.10,-000.01,0000.02,0000.41,-000.28,18.1,24.8,00.7,00.4,0650.5,31.1
2021-04-18T15:25:00Z,00040200,01000000,0001.37,0000.54,0000.48,-000.09,0000.01,-000.31,0000.06,0000.01,0000.27,18.1,24.8,00.7,00.5,0650.5,31.1
2021-04-18T15:26:00Z,00040200,01000000,0001.21,0000.34,0000.60,0000.36,0000.15,-000.03,0000.37,0000.03,0000.27,18.1,24.8,00.6,00.4,0650.5,31.1
2021-04-18T15:27:00Z,00040200,01000000,0000.37,0000.35,0000.51,0000.40,0000.05,-000.31,-000.06,-000.04,-000.19,18.1,24.8,00.7,00.4,0650.5,31.1
2021-04-18T15:28:00Z,00040200,01000000,0001.13,0000.49,0000.50,-000.13,0000.28,-000.30,-001.13,-000.70,-000.67,18.1,24.8,00.4,00.3,0650.5,31.1
2021-04-18T15:29:00Z,00040200,01000000,0001.24,0000.64,0000.71,0000.03,0000.01,-000.07,-001.44,-001.58,-000.89,18.2,24.8,00.2,00.1,0650.5,31.1
2021-04-18T15:30:00Z,00040200,01000000,0001.05,0000.58,0000.44,0000.54,0000.03,0000.07,0000.34,0000.58,0000.52,18.2,24.8,00.2,00.1,0650.5,31.1
2021-04-18T15:31:00Z,00040200,01000000,0001.03,0000.59,0000.19,0000.25,-000.15,-000.33,-000.39,-000.47,-000.48,18.2,24.8,00.1,00.1,0650.5,31.1
2021-04-18T15:32:00Z,00040200,01000000,0000.61,0000.26,0000.55,0000.21,0000.04,0000.08,-000.34,0000.11,-000.20,18.2,24.8,00.1,00.1,0650.5,31.1
2021-04-18T15:33:00Z,00040200,01000000,0001.18,0000.41,0000.28,0000.36,0000.02,-000.08,0000.45,-000.03,0000.10,18.2,24.8,00.0,00.0,0650.5,31.1
2021-04-18T15:34:00Z,00040200,01000000,0001.08,0000.55,0000.64,-000.12,0000.14,-000.04,0000.01,0000.17,0000.11,18.2,24.8,00.1,00.0,0650.5,31.1
2021-04-18T15:35:00Z,00040200,01000000,0000.32,0000.66,0000.47,-000.18,0000.03,-000.06,0000.12,0000.26,0000.40,18.2,24.8,00.1,00.0,0650.5,31.1
2021-04-18T15:36:00Z,00040200,01000000,0001.35,0000.77,0000.38,0000.11,0000.15,-000.15,0000.14,-000.16,0000.08,18.2,24.8,00.1,00.0,0650.5,31.1
2021-04-18T15:37:00Z,00040200,01000000,0000.20,0000.61,0000.63,0000.27,-000.04,-000.23,-000.25,-000.04,-000.22,18.2,24.8,00.1,00.0,0650.5,31.1
2021-04-18T15:38:00Z,00040200,01000000,0001.33,0000.58,0000.51,-000.16,0000.03,-000.07,-000.05,-000.09,0000.16,18.2,24.8,00.0,00.0,0650.5,31.1
2021-04-18T15:39:00Z,00040200,01000000,0000.58,0000.46,0000.59,0000.23,-000.15,0000.00,0000.05,0000.44,-000.08,18.2,24.8,00.1,00.0,0650.6,31.1
2021-04-18T15:40:00Z,00040200,01000000,0001.55,0000.43,0000.58,-000.02,0000.11,-000.06,0000.72,0000.48,0000.18,18.2,24.8,00.0,00.0,0650.6,31.1
2021-04-18T15:41:00Z,00040200,01010000,0000.96,0000.47,0000.16,0000.34,-000.11,-000.12,-000.23,-000.32,0000.52,18.2,24.8,00.0,00.0,0650.6,31.1
2021-04-18T15:42:00Z,00040200,01000000,0001.54,0000.73,0000.45,-000.10,0000.17,-000.09,0000.21,-000.12,-000.06,18.2,24.8,00.1,00.0,0650.6,31.1
2021-04-18T15:43:00Z,00040200,01000000,0000.88,0000.58,0000.20,0000.09,0000.22,-000.28,-000.07,-000.18,-000.49,18.2,24.8,00.0,00.0,0650.6,31.1
2021-04-18T15:44:00Z,00040200,01000000,0001.36,0000.38,0000.72,-000.16,-000.07,-000.04,-000.16,0000.44,0000.66,18.2,24.9,00.0,00.0,0650.6,31.1
2021-04-18T15:45:00Z,00040200,01000000,0001.00,0000.45,0000.46,-000.14,0000.06,0000.04,0000.33,0000.03,-000.07,18.2,24.9,00.0,00.0,0650.6,31.0
2021-04-18T15:46:00Z,00040200,01000000,0000.83,0000.40,0000.62,-000.27,0000.28,-000.14,-000.30,-000.08,-000.22,18.2,24.9,00.0,00.0,0650.6,31.1
2021-04-18T15:47:00Z,00040200,01000000,0001.15,0000.47,0000.37,-000.19,0000.14,-000.25,0000.63,-000.01,0000.15,18.2,24.9,00.0,00.0,0650.6,31.1
2021-04-18T15:48:00Z,00040200,01000000,0001.20,0000.56,0000.81,0000.19,0000.03,0000.14,-000.23,0000.15,0000.19,18.2,24.9,00.0,00.0,0650.6,31.1
2021-04-18T15:49:00Z,00040200,01000000,0000.72,0000.74,0000.62,0000.55,0000.18,-000.02,0000.43,0000.46,-000.06,18.2,24.9,00.0,00.0,0650.6,31.1
2021-04-18T15:50:00Z,00040200,01000000,0001.06,0000.11,0000.38,-000.03,0000.12,0000.08,0000.75,0000.76,0000.81,18.2,24.9,00.0,00.0,0650.6,31.1
2021-04-18T15:51:00Z,00040200,01000000,0001.44,0000.30,0000.51,0000.20,-000.04,-000.24,0000.14,0000.22,0000.24,18.2,24.9,00.0,00.0,0650.6,31.1
2021-04-18T15:52:00Z,00040200,01000000,0000.57,0000.51,0000.54,0000.02,0000.01,-000.12,0001.05,0000.84,0000.51,18.2,24.9,00.0,00.0,0650.6,31.1
2021-04-18T15:53:00Z,00040200,01000000,0000.81,0000.23,0000.42,-000.01,0000.19,0000.08,0001.53,0001.53,0001.05,18.2,24.9,00.2,00.1,0650.6,31.1
2021-04-18T15:54:00Z,00040200,01000000,0000.97,0000.63,0000.51,0000.11,0000.10,-000.23,0000.46,0000.04,0000.50,18.2,24.9,00.3,00.2,0650.6,31.1
2021-04-18T15:55:00Z,00040200,01000000,0000.72,0000.37,0000.55,0000.32,0000.08,0000.18,0000.09,0000.25,-000.21,18.3,24.9,00.4,00.3,0650.6,31.1
2021-04-18T15:56:00Z,00040200,01000000,0000.94,0000.35,0000.60,-000.28,0000.18,-000.29,-000.80,-000.61,-000.63,18.2,24.9,00.2,00.2,0650.6,31.1
2021-04-18T15:57:00Z,00040200,41000000,,,,,,,0000.09,0000.29,0000.42,18.3,24.9,,00.0,0650.6,31.1
2021-04-18T15:58:00Z,00040200,61000000,,,,,,,-000.32,-000.24,-000.28,18.1,25.0,00.0,00.0,0649.7,31.1
2021-04-18T15:59:00Z,00040200,21000000,,,,,,,0000.69,0000.12,0000.34,18.1,25.1,,00.0,0649.7,31.1
